Time,TemperatureF,DewpointF,PressureIn,WindDirection,WindDirectionDegrees,WindSpeedMPH,WindSpeedGustMPH,Humidity,HourlyPrecipIn,Conditions,Clouds,dailyrainin,SolarRadiationWatts/m^2,SoftwareType,DateUTC
2013-04-22 00:02:00,37.0,11.0,-100.00,SW,230,8.0,14.0,33,0.00,,,0.00,0.000000,,2013-04-22 06:02:00,
2013-04-22 00:12:00,37.0,11.0,-100.00,SW,230,8.0,14.0,33,0.00,,,0.00,0.000000,,2013-04-22 06:12:00,
2013-04-22 00:21:00,37.0,11.0,-100.00,SW,230,8.0,14.0,33,0.00,,,0.00,0.000000,,2013-04-22 06:21:00,
2013-04-22 00:32:00,37.0,11.0,-100.00,SW,230,8.0,14.0,33,0.00,,,0.00,0.000000,,2013-04-22 06:32:00,
2013-04-22 00:52:00,35.0,17.0,-100.00,SW,230,16.0,35.0,48,0.00,,,0.00,0.000000,,2013-04-22 06:52:00,
2013-04-22 01:01:00,35.0,17.0,-100.00,SW,230,16.0,35.0,48,0.00,,,0.00,0.000000,,2013-04-22 07:01:00,
2013-04-22 01:12:00,35.0,17.0,-100.00,SW,230,16.0,35.0,48,0.00,,,0.00,0.000000,,2013-04-22 07:12:00,
2013-04-22 01:21:00,35.0,17.0,-100.00,SW,230,16.0,35.0,48,0.00,,,0.00,0.000000,,2013-04-22 07:21:00,
2013-04-22 01:32:00,35.0,17.0,-100.00,SW,230,16.0,35.0,48,0.00,,,0.00,0.000000,,2013-04-22 07:32:00,
2013-04-22 01:52:00,35.0,19.0,-100.00,SW,217,22.0,37.0,52,0.00,,,0.00,0.000000,,2013-04-22 07:52:00,
2013-04-22 02:02:00,35.0,19.0,-100.00,SW,217,22.0,37.0,52,0.00,,,0.00,0.000000,,2013-04-22 08:02:00,
2013-04-22 02:11:00,35.0,19.0,-100.00,SW,217,22.0,37.0,52,0.00,,,0.00,0.000000,,2013-04-22 08:11:00,
2013-04-22 02:22:00,35.0,19.0,-100.00,SW,217,22.0,37.0,52,0.00,,,0.00,0.000000,,2013-04-22 08:22:00,
2013-04-22 02:32:00,35.0,19.0,-100.00,SW,217,22.0,37.0,52,0.00,,,0.00,0.000000,,2013-04-22 08:32:00,
2013-04-22 02:53:00,34.0,23.0,-100.00,SSW,197,23.0,43.0,65,0.00,,,0.00,0.000000,,2013-04-22 08:53:00,
2013-04-22 03:01:00,34.0,23.0,-100.00,SSW,197,23.0,43.0,65,0.00,,,0.00,0.000000,,2013-04-22 09:01:00,
2013-04-22 03:11:00,34.0,23.0,-100.00,SSW,197,23.0,43.0,65,0.00,,,0.00,0.000000,,2013-04-22 09:11:00,
2013-04-22 03:21:00,34.0,23.0,-100.00,SSW,197,23.0,43.0,65,0.00,,,0.00,0.000000,,2013-04-22 09:21:00,
2013-04-22 03:33:00,34.0,23.0,-100.00,SSW,197,23.0,43.0,65,0.00,,,0.00,0.000000,,2013-04-22 09:33:00,
2013-04-22 03:52:00,34.0,23.0,-100.00,South,178,19.0,39.0,65,0.00,,,0.00,0.000000,,2013-04-22 09:52:00,
2013-04-22 04:03:00,34.0,23.0,-100.00,South,178,19.0,39.0,65,0.00,,,0.00,0.000000,,2013-04-22 10:03:00,
2013-04-22 04:12:00,34.0,23.0,-100.00,South,178,19.0,39.0,65,0.00,,,0.00,0.000000,,2013-04-22 10:12:00,
2013-04-22 04:22:00,34.0,23.0,-100.00,South,178,19.0,39.0,65,0.00,,,0.00,0.000000,,2013-04-22 10:22:00,
2013-04-22 04:32:00,34.0,23.0,-100.00,South,178,19.0,39.0,65,0.00,,,0.00,0.000000,,2013-04-22 10:32:00,
2013-04-22 04:52:00,33.0,22.0,-100.00,SSW,208,19.0,34.0,63,0.00,,,0.00,0.000000,,2013-04-22 10:52:00,
2013-04-22 05:02:00,33.0,22.0,-100.00,SSW,208,19.0,34.0,63,0.00,,,0.00,0.000000,,2013-04-22 11:02:00,
2013-04-22 05:12:00,33.0,22.0,-100.00,SSW,208,19.0,34.0,63,0.00,,,0.00,0.000000,,2013-04-22 11:12:00,
2013-04-22 05:22:00,33.0,22.0,-100.00,SSW,208,19.0,34.0,63,0.00,,,0.00,0.000000,,2013-04-22 11:22:00,
2013-04-22 05:32:00,33.0,22.0,-100.00,SSW,208,19.0,34.0,63,0.00,,,0.00,0.000000,,2013-04-22 11:32:00,
2013-04-22 05:52:00,33.0,22.0,-100.00,SSW,195,20.0,33.0,63,0.00,,,0.00,0.000000,,2013-04-22 11:52:00,
2013-04-22 06:02:00,33.0,22.0,-100.00,SSW,195,20.0,33.0,63,0.00,,,0.00,0.000000,,2013-04-22 12:02:00,
2013-04-22 06:12:00,33.0,22.0,-100.00,SSW,195,20.0,33.0,63,0.00,,,0.00,0.000000,,2013-04-22 12:12:00,
2013-04-22 06:21:00,33.0,22.0,-100.00,SSW,195,20.0,33.0,63,0.00,,,0.00,0.000000,,2013-04-22 12:21:00,
2013-04-22 06:32:00,33.0,22.0,-100.00,SSW,195,20.0,33.0,63,0.00,,,0.00,0.000000,,2013-04-22 12:32:00,
2013-04-22 06:52:00,34.0,24.0,-100.00,South,189,21.0,41.0,66,0.00,,,0.00,3.000000,,2013-04-22 12:52:00,
2013-04-22 07:01:00,34.0,24.0,-100.00,South,189,21.0,41.0,66,0.00,,,0.00,3.000000,,2013-04-22 13:01:00,
2013-04-22 07:11:00,34.0,24.0,-100.00,South,189,21.0,41.0,66,0.00,,,0.00,3.000000,,2013-04-22 13:11:00,
2013-04-22 07:22:00,34.0,24.0,-100.00,South,189,21.0,41.0,66,0.00,,,0.00,3.000000,,2013-04-22 13:22:00,
2013-04-22 07:32:00,34.0,24.0,-100.00,South,189,21.0,41.0,66,0.00,,,0.00,3.000000,,2013-04-22 13:32:00,
2013-04-22 07:53:00,34.0,25.0,-100.00,South,189,20.0,36.0,69,0.00,,,0.00,55.000000,,2013-04-22 13:53:00,
2013-04-22 08:02:00,34.0,25.0,-100.00,South,189,20.0,36.0,69,0.00,,,0.00,55.000000,,2013-04-22 14:02:00,
2013-04-22 08:11:00,34.0,25.0,-100.00,South,189,20.0,36.0,69,0.00,,,0.00,55.000000,,2013-04-22 14:11:00,
2013-04-22 08:21:00,34.0,25.0,-100.00,South,189,20.0,36.0,69,0.00,,,0.00,55.000000,,2013-04-22 14:21:00,
2013-04-22 08:33:00,34.0,25.0,-100.00,South,189,20.0,36.0,69,0.00,,,0.00,55.000000,,2013-04-22 14:33:00,
2013-04-22 08:52:00,36.0,25.0,-100.00,SW,233,19.0,29.0,64,0.00,,,0.00,251.000000,,2013-04-22 14:52:00,
2013-04-22 09:02:00,36.0,25.0,-100.00,SW,233,19.0,29.0,64,0.00,,,0.00,251.000000,,2013-04-22 15:02:00,
2013-04-22 09:12:00,36.0,25.0,-100.00,SW,233,19.0,29.0,64,0.00,,,0.00,251.000000,,2013-04-22 15:12:00,
2013-04-22 09:22:00,36.0,25.0,-100.00,SW,233,19.0,29.0,64,0.00,,,0.00,251.000000,,2013-04-22 15:22:00,
2013-04-22 09:33:00,36.0,25.0,-100.00,SW,233,19.0,29.0,64,0.00,,,0.00,251.000000,,2013-04-22 15:33:00,
2013-04-22 09:53:00,38.0,26.0,-100.00,SW,235,15.0,27.0,61,0.00,,,0.00,551.000000,,2013-04-22 15:53:00,
2013-04-22 10:03:00,38.0,26.0,-100.00,SW,235,15.0,27.0,61,0.00,,,0.00,551.000000,,2013-04-22 16:03:00,
2013-04-22 10:12:00,38.0,26.0,-100.00,SW,235,15.0,27.0,61,0.00,,,0.00,551.000000,,2013-04-22 16:12:00,
2013-04-22 10:23:00,38.0,26.0,-100.00,SW,235,15.0,27.0,61,0.00,,,0.00,551.000000,,2013-04-22 16:23:00,
2013-04-22 10:33:00,38.0,26.0,-100.00,SW,235,15.0,27.0,61,0.00,,,0.00,551.000000,,2013-04-22 16:33:00,
2013-04-22 10:52:00,40.0,24.0,-100.00,SW,225,14.0,27.0,53,0.00,,,0.00,626.000000,,2013-04-22 16:52:00,
2013-04-22 11:02:00,40.0,24.0,-100.00,SW,225,14.0,27.0,53,0.00,,,0.00,626.000000,,2013-04-22 17:02:00,
2013-04-22 11:12:00,40.0,24.0,-100.00,SW,225,14.0,27.0,53,0.00,,,0.00,626.000000,,2013-04-22 17:12:00,
2013-04-22 11:22:00,40.0,24.0,-100.00,SW,225,14.0,27.0,53,0.00,,,0.00,626.000000,,2013-04-22 17:22:00,
2013-04-22 11:32:00,40.0,24.0,-100.00,SW,225,14.0,27.0,53,0.00,,,0.00,626.000000,,2013-04-22 17:32:00,
2013-04-22 11:52:00,43.0,20.0,-100.00,WSW,245,16.0,28.0,40,0.00,,,0.00,622.000000,,2013-04-22 17:52:00,
2013-04-22 12:01:00,43.0,20.0,-100.00,WSW,245,16.0,28.0,40,0.00,,,0.00,622.000000,,2013-04-22 18:01:00,
2013-04-22 12:12:00,43.0,20.0,-100.00,WSW,245,16.0,28.0,40,0.00,,,0.00,622.000000,,2013-04-22 18:12:00,
2013-04-22 12:21:00,43.0,20.0,-100.00,WSW,245,16.0,28.0,40,0.00,,,0.00,622.000000,,2013-04-22 18:21:00,
2013-04-22 12:32:00,43.0,20.0,-100.00,WSW,245,16.0,28.0,40,0.00,,,0.00,622.000000,,2013-04-22 18:32:00,
2013-04-22 12:52:00,43.0,22.0,-100.00,WSW,244,19.0,38.0,43,0.00,,,0.00,752.000000,,2013-04-22 18:52:00,
2013-04-22 13:01:00,43.0,22.0,-100.00,WSW,244,19.0,38.0,43,0.00,,,0.00,752.000000,,2013-04-22 19:01:00,
2013-04-22 13:12:00,43.0,22.0,-100.00,WSW,244,19.0,38.0,43,0.00,,,0.00,752.000000,,2013-04-22 19:12:00,
2013-04-22 13:22:00,43.0,22.0,-100.00,WSW,244,19.0,38.0,43,0.00,,,0.00,752.000000,,2013-04-22 19:22:00,
2013-04-22 13:32:00,43.0,22.0,-100.00,WSW,244,19.0,38.0,43,0.00,,,0.00,752.000000,,2013-04-22 19:32:00,
2013-04-22 13:53:00,44.0,23.0,-100.00,West,260,16.0,39.0,44,0.00,,,0.00,764.000000,,2013-04-22 19:53:00,
2013-04-22 14:02:00,44.0,23.0,-100.00,West,260,16.0,39.0,44,0.00,,,0.00,764.000000,,2013-04-22 20:02:00,
2013-04-22 14:11:00,44.0,23.0,-100.00,West,260,16.0,39.0,44,0.00,,,0.00,764.000000,,2013-04-22 20:11:00,
2013-04-22 14:22:00,44.0,23.0,-100.00,West,260,16.0,39.0,44,0.00,,,0.00,764.000000,,2013-04-22 20:22:00,
2013-04-22 14:32:00,44.0,23.0,-100.00,West,260,16.0,39.0,44,0.00,,,0.00,764.000000,,2013-04-22 20:32:00,
2013-04-22 14:52:00,48.0,16.0,-100.00,WSW,247,22.0,45.0,28,0.00,,,0.00,949.000000,,2013-04-22 20:52:00,
2013-04-22 15:02:00,48.0,16.0,-100.00,WSW,247,22.0,45.0,28,0.00,,,0.00,949.000000,,2013-04-22 21:02:00,
2013-04-22 15:11:00,48.0,16.0,-100.00,WSW,247,22.0,45.0,28,0.00,,,0.00,949.000000,,2013-04-22 21:11:00,
2013-04-22 15:21:00,48.0,16.0,-100.00,WSW,247,22.0,45.0,28,0.00,,,0.00,949.000000,,2013-04-22 21:21:00,
2013-04-22 15:32:00,48.0,16.0,-100.00,WSW,247,22.0,45.0,28,0.00,,,0.00,949.000000,,2013-04-22 21:32:00,
2013-04-22 15:53:00,50.0,15.0,-100.00,WSW,256,17.0,40.0,24,0.00,,,0.00,878.000000,,2013-04-22 21:53:00,
2013-04-22 16:03:00,50.0,15.0,-100.00,WSW,256,17.0,40.0,24,0.00,,,0.00,878.000000,,2013-04-22 22:03:00,
2013-04-22 16:12:00,50.0,15.0,-100.00,WSW,256,17.0,40.0,24,0.00,,,0.00,878.000000,,2013-04-22 22:12:00,
2013-04-22 16:22:00,50.0,15.0,-100.00,WSW,256,17.0,40.0,24,0.00,,,0.00,878.000000,,2013-04-22 22:22:00,
2013-04-22 16:33:00,50.0,15.0,-100.00,WSW,256,17.0,40.0,24,0.00,,,0.00,878.000000,,2013-04-22 22:33:00,
2013-04-22 16:52:00,51.0,15.0,-100.00,West,271,17.0,32.0,23,0.00,,,0.00,733.000000,,2013-04-22 22:52:00,
2013-04-22 17:02:00,51.0,15.0,-100.00,West,271,17.0,32.0,23,0.00,,,0.00,733.000000,,2013-04-22 23:02:00,
2013-04-22 17:11:00,51.0,15.0,-100.00,West,271,17.0,32.0,23,0.00,,,0.00,733.000000,,2013-04-22 23:11:00,
2013-04-22 17:21:00,51.0,15.0,-100.00,West,271,17.0,32.0,23,0.00,,,0.00,733.000000,,2013-04-22 23:21:00,
2013-04-22 17:32:00,51.0,15.0,-100.00,West,271,17.0,32.0,23,0.00,,,0.00,733.000000,,2013-04-22 23:32:00,
2013-04-22 17:52:00,51.0,16.0,-100.00,West,266,15.0,32.0,24,0.00,,,0.00,532.000000,,2013-04-22 23:52:00,
2013-04-22 18:02:00,51.0,16.0,-100.00,West,266,15.0,32.0,24,0.00,,,0.00,532.000000,,2013-04-23 00:02:00,
2013-04-22 18:12:00,51.0,16.0,-100.00,West,266,15.0,32.0,24,0.00,,,0.00,532.000000,,2013-04-23 00:12:00,
2013-04-22 18:21:00,51.0,16.0,-100.00,West,266,15.0,32.0,24,0.00,,,0.00,532.000000,,2013-04-23 00:21:00,
2013-04-22 18:31:00,51.0,16.0,-100.00,West,266,15.0,32.0,24,0.00,,,0.00,532.000000,,2013-04-23 00:31:00,
2013-04-22 18:52:00,46.0,15.0,-100.00,WSW,256,13.0,28.0,28,0.00,,,0.00,211.000000,,2013-04-23 00:52:00,
2013-04-22 19:01:00,46.0,15.0,-100.00,WSW,256,13.0,28.0,28,0.00,,,0.00,211.000000,,2013-04-23 01:01:00,
2013-04-22 19:11:00,46.0,15.0,-100.00,WSW,256,13.0,28.0,28,0.00,,,0.00,211.000000,,2013-04-23 01:11:00,
2013-04-22 19:21:00,46.0,15.0,-100.00,WSW,256,13.0,28.0,28,0.00,,,0.00,211.000000,,2013-04-23 01:21:00,
2013-04-22 19:32:00,46.0,15.0,-100.00,WSW,256,13.0,28.0,28,0.00,,,0.00,211.000000,,2013-04-23 01:32:00,
2013-04-22 19:52:00,31.0,24.0,-100.00,SE,137,14.0,25.0,74,0.00,,,0.00,73.000000,,2013-04-23 01:52:00,
2013-04-22 20:02:00,31.0,24.0,-100.00,SE,137,14.0,25.0,74,0.00,,,0.00,73.000000,,2013-04-23 02:02:00,
2013-04-22 20:12:00,31.0,24.0,-100.00,SE,137,14.0,25.0,74,0.00,,,0.00,73.000000,,2013-04-23 02:12:00,
2013-04-22 20:21:00,31.0,24.0,-100.00,SE,137,14.0,25.0,74,0.00,,,0.00,73.000000,,2013-04-23 02:21:00,
2013-04-22 20:32:00,31.0,24.0,-100.00,SE,137,14.0,25.0,74,0.00,,,0.00,73.000000,,2013-04-23 02:32:00,
2013-04-22 20:52:00,25.0,22.0,-100.00,SE,125,16.0,28.0,87,0.00,,,0.00,4.000000,,2013-04-23 02:52:00,
2013-04-22 21:01:00,25.0,22.0,-100.00,SE,125,16.0,28.0,87,0.00,,,0.00,4.000000,,2013-04-23 03:01:00,
2013-04-22 21:11:00,25.0,22.0,-100.00,SE,125,16.0,28.0,87,0.00,,,0.00,4.000000,,2013-04-23 03:11:00,
2013-04-22 21:21:00,25.0,22.0,-100.00,SE,125,16.0,28.0,87,0.00,,,0.00,4.000000,,2013-04-23 03:21:00,
2013-04-22 21:33:00,25.0,22.0,-100.00,SE,125,16.0,28.0,87,0.00,,,0.00,4.000000,,2013-04-23 03:33:00,
2013-04-22 21:53:00,21.0,19.0,-100.00,SE,130,16.0,34.0,92,0.00,,,0.00,0.000000,,2013-04-23 03:53:00,
2013-04-22 22:03:00,21.0,19.0,-100.00,SE,130,16.0,34.0,92,0.00,,,0.00,0.000000,,2013-04-23 04:03:00,
2013-04-22 22:12:00,21.0,19.0,-100.00,SE,130,16.0,34.0,92,0.00,,,0.00,0.000000,,2013-04-23 04:12:00,
2013-04-22 22:23:00,21.0,19.0,-100.00,SE,130,16.0,34.0,92,0.00,,,0.00,0.000000,,2013-04-23 04:23:00,
2013-04-22 22:33:00,21.0,19.0,-100.00,SE,130,16.0,34.0,92,0.00,,,0.00,0.000000,,2013-04-23 04:33:00,
2013-04-22 22:53:00,18.0,16.0,-100.00,SE,127,9.0,28.0,91,0.00,,,0.00,0.000000,,2013-04-23 04:53:00,
2013-04-22 23:02:00,18.0,16.0,-100.00,SE,127,9.0,28.0,91,0.00,,,0.00,0.000000,,2013-04-23 05:02:00,
2013-04-22 23:12:00,18.0,16.0,-100.00,SE,127,9.0,28.0,91,0.00,,,0.00,0.000000,,2013-04-23 05:12:00,
2013-04-22 23:22:00,18.0,16.0,-100.00,SE,127,9.0,28.0,91,0.00,,,0.00,0.000000,,2013-04-23 05:22:00,
2013-04-22 23:32:00,18.0,16.0,-100.00,SE,127,9.0,28.0,91,0.00,,,0.00,0.000000,,2013-04-23 05:32:00,
2013-04-22 23:52:00,17.0,14.0,-100.00,SE,137,8.0,20.0,89,0.00,,,0.00,0.000000,,2013-04-23 05:52:00,